Weather Roundup
Issued by NWS Springfield, MO

Home | Current Version | Previous Version | Text Only | Print | Product List | Glossary On
Versions: 1 2 3 4 5 6 7 8 9 10 11 12 13 14 15 16 17 18 19 20 21 22 23 24 25 26 27 28 29 30 31 32 33 34 35 36 37 38 39 40 41 42 43 44 45 46 47 48 49 50
000
NZUS99 KSGF 252107
HRRSGF

HOURLY WEATHER
NATIONAL WEATHER SERVICE SPRINGFIELD MO
400 PM CDT MON JUL 25 2016

......SGF CWA......

CITY           SKY/WX    TMP DP  RH WIND       PRES   REMARKS
SPRINGFIELD    CLOUDY    82  72  71 NE7       29.99F
JOPLIN         PTSUNNY   82  73  74 N6        29.98S
WEST PLAINS    CLOUDY    88  72  58 N7        30.00F HX  94
ROLLA          PTSUNNY   82  73  74 N7        29.99F
OSAGE BEACH    PTSUNNY   82  75  79 NE9       29.99F
BRANSON        PTSUNNY   81  72  74 SE5       30.01S

......SURROUNDING SGF CWA......

CITY           SKY/WX    TMP DP  RH WIND       PRES   REMARKS
CHANUTE        CLOUDY    84  73  69 NW9       30.01R HX  90
PARSONS          N/A    N/A N/A N/A MISG      30.01R
COFFEYVILLE    CLOUDY    88  71  57 S7        29.96F HX  94
EMPORIA        CLOUDY    78  71  79 VRB6      30.05F
GROVE OK       CLOUDY    86  73  66 CALM      29.96F HX  93
ROGERS AR      CLOUDY    81  72  74 SE12      29.98F
SILOAM SPRINGS CLOUDY    82  66  57 SE12G18   29.97F
HARRISON AR    CLOUDY    83  72  69 SE7       29.99F
NEAR YELLVILLE PTSUNNY   88  72  58 N5        29.93F HX  94

......KANSAS AND MISSOURI......

CITY           SKY/WX    TMP DP  RH WIND       PRES   REMARKS
KANSAS CTY INT CLOUDY    86  70  58 NE14      30.02F HX  90
DOWNTOWN KC    CLOUDY    87  71  58 NE12      29.99F HX  93
COLUMBIA       CLOUDY    83  75  77 N8        30.01F HX  90
SEDALIA        CLOUDY    84  75  74 NE10      30.02F HX  92
ST JOSEPH      PTSUNNY   84  62  47 NE10G21   30.03F
ST LOUIS       PTSUNNY   88  74  63 N8        29.97F HX  96
SPIRIT OF STL  PTSUNNY   86  77  74 NW10      29.96F HX  97
KIRKSVILLE     CLOUDY    87  67  51 NE10      30.04F HX  90
WICHITA        PTSUNNY   88  69  53 VRB5      30.02F HX  92
TOPEKA           N/A     83  71  67 N5        30.04S
OLATHE         CLOUDY    81  70  69 E10       30.03R

......TENNESSEE......

CITY           SKY/WX    TMP DP  RH WIND       PRES   REMARKS
MEMPHIS        PTSUNNY   89  73  59 SW8       29.95F HX  97
NASHVILLE      CLOUDY    91  71  51 SW7       29.98F HX  97

......ARKANSAS.......

CITY           SKY/WX    TMP DP  RH WIND       PRES   REMARKS
FAYETTEVILLE   CLOUDY    81  77  88 VRB5      29.97F
FT SMITH       CLOUDY    84  69  60 SE7       29.93F
LITTLE ROCK    MOSUNNY   96  73  47 SE3       29.92F HX 105

......OKLAHOMA.......

CITY           SKY/WX    TMP DP  RH WIND       PRES   REMARKS
TULSA          CLOUDY    89  73  59 SE7       29.92F HX  97
PONCA CITY     PTSUNNY   85  70  60 SE13      29.97F
MCALESTER      SUNNY     95  75  52 VRB5      29.94F HX 107
OKLAHOMA CITY  PTSUNNY   94  69  44 CALM      29.95F HX  99

......IOWA............

CITY           SKY/WX    TMP DP  RH WIND       PRES   REMARKS
DES MOINES     MOSUNNY   88  60  38 N16       30.05F
QUAD CITIES    MOSUNNY   86  66  51 N7        30.00F

......ILLINOIS........

CITY           SKY/WX    TMP DP  RH WIND       PRES   REMARKS
QUINCY         CLOUDY    83  69  62 N8        30.01F
CHICAGO        MOSUNNY   88  61  40 NW7       29.97F




USA.gov is the U.S. government's official web portal to all federal, state and local government web resources and services.